Location: *
(49.4547°N, 7.9131°E)
Time: 01:48:49
(UTC+00:00)

Resurs 01 Rocket - Pass Details

Date: 22 September 2019
Orbit: 635 x 644 km, 98.0° (Epoch: 16 October)

Event Time Altitude Azimuth Distance (km) Brightness Sun altitude
Exits shadow 19:02:48 29° 105° (ESE) 1,188 2.4 -16.1°
Maximum altitude 19:04:13 36° 67° (ENE) 1,019 2.3 -16.3°
Drops below altitude 10° 19:08:18 10° 1° (N) 2,051 4.5 -16.9°
Sets 19:10:38 0° 353° (N) 2,967 5.5 -17.2°
